Powrót do katalogu

SL-8 DEB *

AktywnyVLEO
NORAD 18504·DEBRIS·🇷🇺 Russia

Wystrzelony Sep 29, 1976 z Plesetsk Cosmodrome

Loading…

Następne Przeloty (najbliższe 24 godziny)

TLE

ŚwieżeSource: Space-Track

Epoka: Sep 14, 2026, 06:46 UTC

1 18504U 76098E   26257.28200755  .00009211  00000-0  55587-3 0  9995
2 18504  74.0243 356.7039 0006486 113.8823 278.3236 15.10818123209050

Śledź SL-8 DEB * w czasie rzeczywistym z AllMySat

Download on the App Store